Location: Roland
(31.1349°N, 85.4372°W)
Time: 21:40:15
(UTC+00:00)

Tiros 1 - Pass Details

Date: 19 April 2021
Orbit: 630 x 664 km, 48.4° (Epoch: 05 May)

Event Time Altitude Azimuth Distance (km) Brightness Sun altitude
Rises 15:49:43 0° 270° (W) 2,931 10.2 57.6°
Reaches altitude 10° 15:52:38 10° 288° (WNW) 2,018 9.5 58.2°
Maximum altitude 15:55:59 19° 335° (NNW) 1,497 9.0 58.8°
Drops below altitude 10° 15:59:19 10° 21° (NNE) 2,010 9.7 59.4°
Sets 16:02:13 0° 39° (NE) 2,917 10.5 59.9°
